Location: ??????????
(48.4699°N, 37.9573°E)
Time: 20:56:07
(UTC+00:00)

Cosmos 1092 Rocket - Pass Details

Date: 20 January 2021
Orbit: 954 x 995 km, 83.0° (Epoch: 01 March)

Event Time Altitude Azimuth Distance (km) Brightness Sun altitude
Rises 16:52:53 0° 196° (SSW) 3,656 7.2 -26.9°
Reaches altitude 10° 16:55:25 10° 199° (SSW) 2,707 6.5 -27.3°
Maximum altitude 17:01:34 66° 282° (WNW) 1,048 4.2 -28.3°
Drops below altitude 10° 17:07:44 10° 4° (N) 2,702 6.3 -29.3°
Sets 17:10:15 0° 8° (N) 3,649 7.0 -29.8°
